Time,TemperatureF,DewpointF,PressureIn,WindDirection,WindDirectionDegrees,WindSpeedMPH,WindSpeedGustMPH,Humidity,HourlyPrecipIn,Conditions,Clouds,dailyrainin,SoftwareType,DateUTC
2013-02-27 00:02:00,33.0,31.0,29.53,WNW,285,4.0,9.0,94,0.00,,,1.01,,2013-02-27 06:02:00,
2013-02-27 00:11:00,33.0,31.0,29.53,WNW,285,4.0,9.0,94,0.00,,,1.01,,2013-02-27 06:11:00,
2013-02-27 00:21:00,33.0,31.0,29.55,WNW,290,4.0,11.0,94,0.00,,,0.99,,2013-02-27 06:21:00,
2013-02-27 00:32:00,33.0,31.0,29.55,WNW,290,4.0,11.0,94,0.00,,,0.99,,2013-02-27 06:32:00,
2013-02-27 00:42:00,33.0,31.0,29.55,WNW,290,4.0,11.0,94,0.00,,,0.99,,2013-02-27 06:42:00,
2013-02-27 00:52:00,32.0,30.0,29.57,WSW,257,3.0,10.0,94,0.00,,,0.99,,2013-02-27 06:52:00,
2013-02-27 01:01:00,32.0,30.0,29.57,WSW,257,3.0,10.0,94,0.00,,,0.99,,2013-02-27 07:01:00,
2013-02-27 01:12:00,32.0,30.0,29.57,WSW,257,3.0,10.0,94,0.00,,,0.99,,2013-02-27 07:12:00,
2013-02-27 01:21:00,32.0,30.0,29.59,WSW,237,6.0,13.0,94,0.00,,,0.98,,2013-02-27 07:21:00,
2013-02-27 01:31:00,32.0,30.0,29.59,WSW,237,6.0,13.0,94,0.00,,,0.98,,2013-02-27 07:31:00,
2013-02-27 01:42:00,32.0,30.0,29.59,WSW,237,6.0,13.0,94,0.00,,,0.98,,2013-02-27 07:42:00,
2013-02-27 01:52:00,32.0,30.0,29.59,West,271,5.0,11.0,94,0.00,,,0.98,,2013-02-27 07:52:00,
2013-02-27 02:01:00,32.0,30.0,29.59,West,271,5.0,11.0,94,0.00,,,0.98,,2013-02-27 08:01:00,
2013-02-27 02:11:00,32.0,30.0,29.59,West,271,5.0,11.0,94,0.00,,,0.98,,2013-02-27 08:11:00,
2013-02-27 02:21:00,32.0,30.0,29.60,WSW,248,6.0,12.0,94,0.00,,,0.96,,2013-02-27 08:21:00,
2013-02-27 02:31:00,32.0,30.0,29.60,WSW,248,6.0,12.0,94,0.00,,,0.96,,2013-02-27 08:31:00,
2013-02-27 02:42:00,32.0,30.0,29.60,WSW,248,6.0,12.0,94,0.00,,,0.96,,2013-02-27 08:42:00,
2013-02-27 02:53:00,32.0,30.0,29.60,WSW,247,7.0,15.0,94,0.00,,,0.96,,2013-02-27 08:53:00,
2013-02-27 03:01:00,32.0,30.0,29.60,WSW,247,7.0,15.0,94,0.00,,,0.96,,2013-02-27 09:01:00,
2013-02-27 03:12:00,32.0,30.0,29.60,WSW,247,7.0,15.0,94,0.00,,,0.96,,2013-02-27 09:12:00,
2013-02-27 03:21:00,32.0,30.0,29.60,West,262,5.0,14.0,94,0.00,,,0.94,,2013-02-27 09:21:00,
2013-02-27 03:32:00,32.0,30.0,29.60,West,262,5.0,14.0,94,0.00,,,0.94,,2013-02-27 09:32:00,
2013-02-27 03:42:00,32.0,30.0,29.60,West,262,5.0,14.0,94,0.00,,,0.94,,2013-02-27 09:42:00,
2013-02-27 03:52:00,32.0,30.0,29.60,WSW,243,5.0,10.0,94,0.00,,,0.94,,2013-02-27 09:52:00,
2013-02-27 04:01:00,32.0,30.0,29.60,WSW,243,5.0,10.0,94,0.00,,,0.94,,2013-02-27 10:01:00,
2013-02-27 04:12:00,32.0,30.0,29.60,WSW,243,5.0,10.0,94,0.00,,,0.94,,2013-02-27 10:12:00,
2013-02-27 04:21:00,32.0,30.0,29.61,WSW,252,5.0,11.0,94,0.00,,,0.90,,2013-02-27 10:21:00,
2013-02-27 04:32:00,32.0,30.0,29.61,WSW,252,5.0,11.0,94,0.00,,,0.90,,2013-02-27 10:32:00,
2013-02-27 04:42:00,32.0,30.0,29.61,WSW,252,5.0,11.0,94,0.00,,,0.90,,2013-02-27 10:42:00,
2013-02-27 04:53:00,32.0,30.0,29.62,SW,235,6.0,11.0,94,0.00,,,0.90,,2013-02-27 10:53:00,
2013-02-27 05:02:00,32.0,30.0,29.62,SW,235,6.0,11.0,94,0.00,,,0.90,,2013-02-27 11:02:00,
2013-02-27 05:12:00,32.0,30.0,29.62,SW,235,6.0,11.0,94,0.00,,,0.90,,2013-02-27 11:12:00,
2013-02-27 05:22:00,32.0,30.0,29.62,WSW,252,4.0,13.0,94,0.00,,,0.87,,2013-02-27 11:22:00,
2013-02-27 05:32:00,32.0,30.0,29.62,WSW,252,4.0,13.0,94,0.00,,,0.87,,2013-02-27 11:32:00,
2013-02-27 05:42:00,32.0,30.0,29.62,WSW,252,4.0,13.0,94,0.00,,,0.87,,2013-02-27 11:42:00,
2013-02-27 05:52:00,32.0,30.0,29.63,WSW,252,6.0,13.0,94,0.00,,,0.87,,2013-02-27 11:52:00,
2013-02-27 06:02:00,32.0,30.0,29.63,WSW,252,6.0,13.0,94,0.00,,,0.87,,2013-02-27 12:02:00,
2013-02-27 06:13:00,32.0,30.0,29.63,WSW,252,6.0,13.0,94,0.00,,,0.87,,2013-02-27 12:13:00,
2013-02-27 06:22:00,32.0,30.0,29.63,WSW,237,7.0,13.0,94,0.00,,,0.83,,2013-02-27 12:22:00,
2013-02-27 06:32:00,32.0,30.0,29.63,WSW,237,7.0,13.0,94,0.00,,,0.83,,2013-02-27 12:32:00,
2013-02-27 06:42:00,32.0,30.0,29.63,WSW,237,7.0,13.0,94,0.00,,,0.83,,2013-02-27 12:42:00,
2013-02-27 06:52:00,32.0,30.0,29.64,SW,229,6.0,12.0,94,0.00,,,0.83,,2013-02-27 12:52:00,
2013-02-27 07:02:00,32.0,30.0,29.64,SW,229,6.0,12.0,94,0.00,,,0.83,,2013-02-27 13:02:00,
2013-02-27 07:11:00,32.0,30.0,29.64,SW,229,6.0,12.0,94,0.00,,,0.83,,2013-02-27 13:11:00,
2013-02-27 07:22:00,32.0,30.0,29.65,WSW,238,5.0,10.0,94,0.00,,,0.80,,2013-02-27 13:22:00,
2013-02-27 07:32:00,32.0,30.0,29.65,WSW,238,5.0,10.0,94,0.00,,,0.80,,2013-02-27 13:32:00,
2013-02-27 07:42:00,32.0,30.0,29.65,WSW,238,5.0,10.0,94,0.00,,,0.80,,2013-02-27 13:42:00,
2013-02-27 07:52:00,32.0,30.0,29.66,WSW,239,5.0,12.0,94,0.00,,,0.80,,2013-02-27 13:52:00,
2013-02-27 08:02:00,32.0,30.0,29.66,WSW,239,5.0,12.0,94,0.00,,,0.80,,2013-02-27 14:02:00,
2013-02-27 08:12:00,32.0,30.0,29.66,WSW,239,5.0,12.0,94,0.00,,,0.80,,2013-02-27 14:12:00,
2013-02-27 08:21:00,32.0,30.0,29.67,WSW,246,6.0,12.0,94,0.00,,,0.76,,2013-02-27 14:21:00,
2013-02-27 08:32:00,32.0,30.0,29.67,WSW,246,6.0,12.0,94,0.00,,,0.76,,2013-02-27 14:32:00,
2013-02-27 08:42:00,32.0,30.0,29.67,WSW,246,6.0,12.0,94,0.00,,,0.76,,2013-02-27 14:42:00,
2013-02-27 08:52:00,32.0,30.0,29.67,West,268,6.0,13.0,93,0.00,,,0.76,,2013-02-27 14:52:00,
2013-02-27 09:02:00,32.0,30.0,29.67,West,268,6.0,13.0,93,0.00,,,0.76,,2013-02-27 15:02:00,
2013-02-27 09:12:00,32.0,30.0,29.67,West,268,6.0,13.0,93,0.00,,,0.76,,2013-02-27 15:12:00,
2013-02-27 09:22:00,32.0,30.0,29.67,West,280,5.0,10.0,93,0.00,,,0.74,,2013-02-27 15:22:00,
2013-02-27 09:32:00,32.0,30.0,29.67,West,280,5.0,10.0,93,0.00,,,0.74,,2013-02-27 15:32:00,
2013-02-27 09:42:00,32.0,30.0,29.67,West,280,5.0,10.0,93,0.00,,,0.74,,2013-02-27 15:42:00,
2013-02-27 09:52:00,32.0,30.0,29.67,WSW,249,5.0,14.0,93,0.02,,,0.76,,2013-02-27 15:52:00,
2013-02-27 10:02:00,32.0,30.0,29.67,WSW,249,5.0,14.0,93,0.02,,,0.76,,2013-02-27 16:02:00,
2013-02-27 10:12:00,32.0,30.0,29.67,WSW,249,5.0,14.0,93,0.02,,,0.76,,2013-02-27 16:12:00,
2013-02-27 10:22:00,32.0,30.0,29.68,West,269,8.0,14.0,93,0.03,,,0.74,,2013-02-27 16:22:00,
2013-02-27 10:32:00,32.0,30.0,29.68,West,269,8.0,14.0,93,0.03,,,0.74,,2013-02-27 16:32:00,
2013-02-27 10:42:00,32.0,30.0,29.68,West,269,8.0,14.0,93,0.03,,,0.74,,2013-02-27 16:42:00,
2013-02-27 10:52:00,33.0,30.0,29.68,West,260,8.0,15.0,88,0.02,,,0.75,,2013-02-27 16:52:00,
2013-02-27 11:01:00,33.0,30.0,29.68,West,260,8.0,15.0,88,0.02,,,0.75,,2013-02-27 17:01:00,
2013-02-27 11:11:00,33.0,30.0,29.68,West,260,8.0,15.0,88,0.02,,,0.75,,2013-02-27 17:11:00,
2013-02-27 11:21:00,34.0,31.0,29.68,WSW,252,7.0,13.0,87,0.01,,,0.72,,2013-02-27 17:21:00,
2013-02-27 11:32:00,34.0,31.0,29.68,WSW,252,7.0,13.0,87,0.01,,,0.72,,2013-02-27 17:32:00,
2013-02-27 11:42:00,34.0,31.0,29.68,WSW,252,7.0,13.0,87,0.01,,,0.72,,2013-02-27 17:42:00,
2013-02-27 11:52:00,33.0,30.0,29.69,WSW,256,7.0,13.0,89,0.00,,,0.72,,2013-02-27 17:52:00,
2013-02-27 12:01:00,33.0,30.0,29.69,WSW,256,7.0,13.0,89,0.00,,,0.72,,2013-02-27 18:01:00,
2013-02-27 12:11:00,33.0,30.0,29.69,WSW,256,7.0,13.0,89,0.00,,,0.72,,2013-02-27 18:11:00,
2013-02-27 12:22:00,33.0,30.0,29.69,West,260,6.0,15.0,90,0.00,,,0.70,,2013-02-27 18:22:00,
2013-02-27 12:32:00,33.0,30.0,29.69,West,260,6.0,15.0,90,0.00,,,0.70,,2013-02-27 18:32:00,
2013-02-27 12:42:00,33.0,30.0,29.69,West,260,6.0,15.0,90,0.00,,,0.70,,2013-02-27 18:42:00,
2013-02-27 12:52:00,34.0,31.0,29.69,WSW,250,8.0,17.0,89,0.00,,,0.70,,2013-02-27 18:52:00,
2013-02-27 13:01:00,34.0,31.0,29.69,WSW,250,8.0,17.0,89,0.00,,,0.70,,2013-02-27 19:01:00,
2013-02-27 13:12:00,34.0,31.0,29.69,WSW,250,8.0,17.0,89,0.00,,,0.70,,2013-02-27 19:12:00,
2013-02-27 13:21:00,34.0,31.0,29.69,West,274,8.0,15.0,88,0.00,,,0.67,,2013-02-27 19:21:00,
2013-02-27 13:32:00,34.0,31.0,29.69,West,274,8.0,15.0,88,0.00,,,0.67,,2013-02-27 19:32:00,
2013-02-27 13:42:00,34.0,31.0,29.69,West,274,8.0,15.0,88,0.00,,,0.67,,2013-02-27 19:42:00,
2013-02-27 13:52:00,34.0,31.0,29.69,West,260,7.0,14.0,88,0.00,,,0.67,,2013-02-27 19:52:00,
2013-02-27 14:01:00,34.0,31.0,29.69,West,260,7.0,14.0,88,0.00,,,0.67,,2013-02-27 20:01:00,
2013-02-27 14:12:00,34.0,31.0,29.69,West,260,7.0,14.0,88,0.00,,,0.67,,2013-02-27 20:12:00,
2013-02-27 14:21:00,33.0,30.0,29.70,WSW,258,6.0,17.0,90,0.00,,,0.66,,2013-02-27 20:21:00,
2013-02-27 14:32:00,33.0,30.0,29.70,WSW,258,6.0,17.0,90,0.00,,,0.66,,2013-02-27 20:32:00,
2013-02-27 14:42:00,33.0,30.0,29.70,WSW,258,6.0,17.0,90,0.00,,,0.66,,2013-02-27 20:42:00,
2013-02-27 14:52:00,33.0,31.0,29.70,West,266,8.0,15.0,91,0.00,,,0.66,,2013-02-27 20:52:00,
2013-02-27 15:02:00,33.0,31.0,29.70,West,266,8.0,15.0,91,0.00,,,0.66,,2013-02-27 21:02:00,
2013-02-27 15:11:00,33.0,31.0,29.70,West,266,8.0,15.0,91,0.00,,,0.66,,2013-02-27 21:11:00,
2013-02-27 15:21:00,33.0,31.0,29.71,WSW,256,8.0,15.0,91,0.00,,,0.64,,2013-02-27 21:21:00,
2013-02-27 15:31:00,33.0,31.0,29.71,WSW,256,8.0,15.0,91,0.00,,,0.64,,2013-02-27 21:31:00,
2013-02-27 15:42:00,33.0,31.0,29.71,WSW,256,8.0,15.0,91,0.00,,,0.64,,2013-02-27 21:42:00,
2013-02-27 15:52:00,33.0,31.0,29.71,WSW,241,7.0,13.0,91,0.01,,,0.65,,2013-02-27 21:52:00,
2013-02-27 16:01:00,33.0,31.0,29.71,WSW,241,7.0,13.0,91,0.01,,,0.65,,2013-02-27 22:01:00,
2013-02-27 16:11:00,33.0,31.0,29.71,WSW,241,7.0,13.0,91,0.01,,,0.65,,2013-02-27 22:11:00,
2013-02-27 16:21:00,34.0,31.0,29.72,West,261,7.0,13.0,88,0.01,,,0.63,,2013-02-27 22:21:00,
2013-02-27 16:31:00,34.0,31.0,29.72,West,261,7.0,13.0,88,0.01,,,0.63,,2013-02-27 22:31:00,
2013-02-27 16:42:00,34.0,31.0,29.72,West,261,7.0,13.0,88,0.01,,,0.63,,2013-02-27 22:42:00,
2013-02-27 16:52:00,34.0,31.0,29.73,West,269,7.0,13.0,88,0.00,,,0.63,,2013-02-27 22:52:00,
2013-02-27 17:01:00,34.0,31.0,29.73,West,269,7.0,13.0,88,0.00,,,0.63,,2013-02-27 23:01:00,
2013-02-27 17:11:00,34.0,31.0,29.73,West,269,7.0,13.0,88,0.00,,,0.63,,2013-02-27 23:11:00,
2013-02-27 17:21:00,33.0,30.0,29.75,WSW,245,6.0,14.0,88,0.00,,,0.61,,2013-02-27 23:21:00,
2013-02-27 17:32:00,33.0,30.0,29.75,WSW,245,6.0,14.0,88,0.00,,,0.61,,2013-02-27 23:32:00,
2013-02-27 17:42:00,33.0,30.0,29.75,WSW,245,6.0,14.0,88,0.00,,,0.61,,2013-02-27 23:42:00,
2013-02-27 17:53:00,33.0,30.0,29.75,SW,233,6.0,13.0,88,0.00,,,0.61,,2013-02-27 23:53:00,
2013-02-27 18:01:00,33.0,30.0,29.75,SW,233,6.0,13.0,88,0.00,,,0.61,,2013-02-28 00:01:00,
2013-02-27 18:12:00,33.0,30.0,29.75,SW,233,6.0,13.0,88,0.00,,,0.61,,2013-02-28 00:12:00,
2013-02-27 18:21:00,33.0,30.0,29.76,West,268,6.0,12.0,88,0.00,,,0.54,,2013-02-28 00:21:00,
2013-02-27 18:32:00,33.0,30.0,29.76,West,268,6.0,12.0,88,0.00,,,0.54,,2013-02-28 00:32:00,
2013-02-27 18:42:00,33.0,30.0,29.76,West,268,6.0,12.0,88,0.00,,,0.54,,2013-02-28 00:42:00,
2013-02-27 18:52:00,32.0,29.0,29.77,WSW,254,5.0,13.0,88,0.00,,,0.54,,2013-02-28 00:52:00,
2013-02-27 19:01:00,32.0,29.0,29.77,WSW,254,5.0,13.0,88,0.00,,,0.54,,2013-02-28 01:01:00,
2013-02-27 19:11:00,32.0,29.0,29.77,WSW,254,5.0,13.0,88,0.00,,,0.54,,2013-02-28 01:11:00,
2013-02-27 19:21:00,32.0,29.0,29.78,West,268,7.0,14.0,87,0.00,,,0.40,,2013-02-28 01:21:00,
2013-02-27 19:31:00,32.0,29.0,29.78,West,268,7.0,14.0,87,0.00,,,0.40,,2013-02-28 01:31:00,
2013-02-27 19:42:00,32.0,29.0,29.78,West,268,7.0,14.0,87,0.00,,,0.40,,2013-02-28 01:42:00,
2013-02-27 19:52:00,32.0,29.0,29.78,West,271,7.0,12.0,89,0.00,,,0.40,,2013-02-28 01:52:00,
2013-02-27 20:01:00,32.0,29.0,29.78,West,271,7.0,12.0,89,0.00,,,0.40,,2013-02-28 02:01:00,
2013-02-27 20:11:00,32.0,29.0,29.78,West,271,7.0,12.0,89,0.00,,,0.40,,2013-02-28 02:11:00,
2013-02-27 20:22:00,32.0,29.0,29.79,West,272,7.0,12.0,90,0.00,,,0.27,,2013-02-28 02:22:00,
2013-02-27 20:31:00,32.0,29.0,29.79,West,272,7.0,12.0,90,0.00,,,0.27,,2013-02-28 02:31:00,
2013-02-27 20:42:00,32.0,29.0,29.79,West,272,7.0,12.0,90,0.00,,,0.27,,2013-02-28 02:42:00,
2013-02-27 20:52:00,32.0,29.0,29.79,West,272,7.0,12.0,90,0.00,,,0.27,,2013-02-28 02:52:00,
2013-02-27 21:01:00,32.0,30.0,29.79,West,269,7.0,12.0,91,0.00,,,0.27,,2013-02-28 03:01:00,
2013-02-27 21:11:00,32.0,30.0,29.79,West,269,7.0,12.0,91,0.00,,,0.27,,2013-02-28 03:11:00,
2013-02-27 21:21:00,31.0,29.0,29.79,WSW,252,6.0,13.0,91,0.00,,,0.16,,2013-02-28 03:21:00,
2013-02-27 21:31:00,31.0,29.0,29.79,WSW,252,6.0,13.0,91,0.00,,,0.16,,2013-02-28 03:31:00,
2013-02-27 21:42:00,31.0,29.0,29.79,WSW,252,6.0,13.0,91,0.00,,,0.16,,2013-02-28 03:42:00,
2013-02-27 21:52:00,32.0,29.0,29.79,WNW,291,4.0,11.0,90,0.00,,,0.16,,2013-02-28 03:52:00,
2013-02-27 22:01:00,32.0,29.0,29.79,WNW,291,4.0,11.0,90,0.00,,,0.16,,2013-02-28 04:01:00,
2013-02-27 22:11:00,32.0,29.0,29.79,WNW,291,4.0,11.0,90,0.00,,,0.16,,2013-02-28 04:11:00,
2013-02-27 22:21:00,32.0,29.0,29.79,West,280,6.0,14.0,90,0.00,,,0.08,,2013-02-28 04:21:00,
2013-02-27 22:31:00,32.0,29.0,29.79,West,280,6.0,14.0,90,0.00,,,0.08,,2013-02-28 04:31:00,
2013-02-27 22:42:00,32.0,29.0,29.79,West,280,6.0,14.0,90,0.00,,,0.08,,2013-02-28 04:42:00,
2013-02-27 22:52:00,32.0,29.0,29.79,WNW,285,5.0,13.0,90,0.00,,,0.08,,2013-02-28 04:52:00,
2013-02-27 23:01:00,32.0,29.0,29.79,WNW,285,5.0,13.0,90,0.00,,,0.08,,2013-02-28 05:01:00,
2013-02-27 23:11:00,32.0,29.0,29.79,WNW,285,5.0,13.0,90,0.00,,,0.08,,2013-02-28 05:11:00,
2013-02-27 23:22:00,32.0,29.0,29.79,West,262,5.0,11.0,89,0.00,,,0.05,,2013-02-28 05:22:00,
2013-02-27 23:31:00,32.0,29.0,29.79,West,262,5.0,11.0,89,0.00,,,0.05,,2013-02-28 05:31:00,
2013-02-27 23:43:00,32.0,29.0,29.79,West,262,5.0,11.0,89,0.00,,,0.05,,2013-02-28 05:43:00,
2013-02-27 23:52:00,32.0,29.0,29.79,WNW,286,6.0,12.0,89,0.00,,,0.05,,2013-02-28 05:52:00,